• en France
  • Liste des pays
  • À 7 jours
  • Température de l'eau
  • Carte satellitaire
  • Carte météo
  • Widgets météo
  • user-avatar
    Se connecter

    Météo par heure à Boragangechuv

    Ce jour, 16 Octobre, Mardi

    Heure Température Précipitation Vent Pression Humidité
    00:00 +15°C° 0 mm 1 m/s 763 mmHg 60%
    01:00 +15°C° 0 mm 1 m/s 763 mmHg 61%
    02:00 +15°C° 0 mm 1 m/s 763 mmHg 62%
    03:00 +15°C° 0 mm 1 m/s 763 mmHg 62%
    04:00 +15°C° 0 mm 1 m/s 763 mmHg 62%
    05:00 +15°C° 0 mm 1 m/s 763 mmHg 62%
    06:00 +15°C° 0 mm 1 m/s 763 mmHg 62%
    07:00 +16°C° 0 mm 1 m/s 763 mmHg 58%
    08:00 +19°C° 0 mm 1 m/s 763 mmHg 54%
    09:00 +20°C° 0 mm 2 m/s 764 mmHg 49%
    10:00 +21°C° 0 mm 2 m/s 764 mmHg 48%
    11:00 +23°C° 0 mm 2 m/s 763 mmHg 46%
    12:00 +24°C° 0 mm 3 m/s 763 mmHg 45%
    13:00 +24°C° 0 mm 3 m/s 763 mmHg 46%
    14:00 +24°C° 0 mm 3 m/s 763 mmHg 47%
    15:00 +22°C° 0 mm 3 m/s 763 mmHg 49%
    16:00 +21°C° 0 mm 3 m/s 763 mmHg 56%
    17:00 +19°C° 0 mm 3 m/s 763 mmHg 63%
    18:00 +18°C° 0 mm 3 m/s 763 mmHg 70%
    19:00 +17°C° 0 mm 3 m/s 763 mmHg 73%
    20:00 +17°C° 0 mm 3 m/s 763 mmHg 76%
    21:00 +16°C° 0 mm 3 m/s 763 mmHg 78%
    22:00 +16°C° 0 mm 2 m/s 763 mmHg 79%
    23:00 +16°C° 0 mm 2 m/s 763 mmHg 81%

    Demain, 17 Octobre, Mercredi

    Heure Température Précipitation Vent Pression Humidité
    00:00 +15°C° 0 mm 2 m/s 763 mmHg 82%
    01:00 +15°C° 0 mm 2 m/s 763 mmHg 82%
    02:00 +15°C° 0 mm 2 m/s 763 mmHg 82%
    03:00 +15°C° 0 mm 2 m/s 763 mmHg 82%
    04:00 +15°C° 0 mm 2 m/s 762 mmHg 81%
    05:00 +15°C° 0 mm 2 m/s 762 mmHg 81%
    06:00 +15°C° 0 mm 2 m/s 762 mmHg 81%
    07:00 +17°C° 0 mm 3 m/s 762 mmHg 73%
    08:00 +19°C° 0 mm 3 m/s 762 mmHg 66%
    09:00 +20°C° 0 mm 3 m/s 762 mmHg 58%
    10:00 +22°C° 0 mm 3 m/s 762 mmHg 55%
    11:00 +23°C° 0 mm 4 m/s 762 mmHg 52%
    12:00 +25°C° 0 mm 4 m/s 761 mmHg 49%
    13:00 +25°C° 0 mm 4 m/s 761 mmHg 51%
    14:00 +23°C° 0 mm 5 m/s 761 mmHg 53%
    15:00 +23°C° 0 mm 5 m/s 760 mmHg 56%
    16:00 +21°C° 0 mm 4 m/s 760 mmHg 64%
    17:00 +20°C° 0 mm 4 m/s 761 mmHg 73%
    18:00 +18°C° 0 mm 3 m/s 761 mmHg 82%
    19:00 +17°C° 0 mm 3 m/s 761 mmHg 84%
    20:00 +17°C° 0 mm 3 m/s 761 mmHg 85%
    21:00 +16°C° 0 mm 2 m/s 761 mmHg 87%
    22:00 +16°C° 0 mm 2 m/s 760 mmHg 87%
    23:00 +16°C° 0 mm 2 m/s 760 mmHg 88%

    Après-demain, 18 Octobre, Jeudi

    Heure Température Précipitation Vent Pression Humidité
    00:00 +15°C° 0 mm 2 m/s 760 mmHg 88%
    01:00 +15°C° 0 mm 2 m/s 760 mmHg 87%
    02:00 +15°C° 0 mm 2 m/s 760 mmHg 87%
    03:00 +15°C° 0 mm 2 m/s 760 mmHg 86%
    04:00 +15°C° 0 mm 2 m/s 760 mmHg 85%
    05:00 +15°C° 0 mm 2 m/s 760 mmHg 84%
    06:00 +15°C° 0 mm 1 m/s 760 mmHg 83%
    07:00 +16°C° 0 mm 2 m/s 760 mmHg 76%
    08:00 +18°C° 0 mm 2 m/s 760 mmHg 70%
    09:00 +20°C° 0 mm 2 m/s 760 mmHg 64%
    10:00 +21°C° 0 mm 2 m/s 760 mmHg 59%
    11:00 +22°C° 0 mm 3 m/s 760 mmHg 54%
    12:00 +25°C° 0 mm 3 m/s 760 mmHg 48%
    13:00 +25°C° 0 mm 3 m/s 760 mmHg 50%
    14:00 +23°C° 0 mm 4 m/s 759 mmHg 51%
    15:00 +23°C° 0 mm 4 m/s 759 mmHg 53%
    16:00 +21°C° 0 mm 4 m/s 759 mmHg 62%
    17:00 +20°C° 0 mm 4 m/s 759 mmHg 72%
    18:00 +18°C° 0 mm 3 m/s 760 mmHg 82%
    19:00 +17°C° 0 mm 3 m/s 760 mmHg 85%
    20:00 +17°C° 0 mm 3 m/s 760 mmHg 87%
    21:00 +16°C° 0 mm 3 m/s 760 mmHg 89%
    22:00 +16°C° 0 mm 3 m/s 760 mmHg 88%
    23:00 +16°C° 0 mm 3 m/s 760 mmHg 87%

    19 Octobre, Vendredi

    Heure Température Précipitation Vent Pression Humidité
    00:00 +16°C° 0 mm 3 m/s 760 mmHg 86%
    01:00 +16°C° 0 mm 3 m/s 760 mmHg 84%
    02:00 +16°C° 0 mm 3 m/s 760 mmHg 83%
    03:00 +16°C° 0 mm 3 m/s 759 mmHg 81%
    04:00 +16°C° 0 mm 3 m/s 759 mmHg 80%
    05:00 +16°C° 0 mm 3 m/s 759 mmHg 78%
    06:00 +16°C° 0 mm 3 m/s 759 mmHg 77%
    07:00 +17°C° 0 mm 3 m/s 759 mmHg 71%
    08:00 +19°C° 0 mm 3 m/s 759 mmHg 65%
    09:00 +21°C° 0 mm 3 m/s 759 mmHg 59%
    10:00 +22°C° 0 mm 4 m/s 759 mmHg 54%
    11:00 +23°C° 0 mm 4 m/s 759 mmHg 50%
    12:00 +25°C° 0 mm 5 m/s 758 mmHg 46%
    13:00 +25°C° 0 mm 5 m/s 758 mmHg 48%
    14:00 +25°C° 0 mm 5 m/s 758 mmHg 50%
    15:00 +23°C° 0 mm 5 m/s 758 mmHg 52%
    16:00 +22°C° 0 mm 5 m/s 758 mmHg 60%
    17:00 +20°C° 0 mm 5 m/s 758 mmHg 69%
    18:00 +18°C° 0 mm 4 m/s 758 mmHg 77%
    19:00 +18°C° 0 mm 4 m/s 758 mmHg 77%
    20:00 +18°C° 0 mm 4 m/s 758 mmHg 78%
    21:00 +17°C° 0 mm 4 m/s 758 mmHg 78%
    22:00 +17°C° 0 mm 3 m/s 758 mmHg 77%
    23:00 +17°C° 0 mm 3 m/s 757 mmHg 76%

    20 Octobre, Samedi

    Heure Température Précipitation Vent Pression Humidité
    00:00 +17°C° 0 mm 3 m/s 757 mmHg 75%
    01:00 +17°C° 0 mm 3 m/s 757 mmHg 74%
    02:00 +16°C° 0 mm 3 m/s 757 mmHg 73%
    03:00 +16°C° 0 mm 2 m/s 756 mmHg 72%
    04:00 +16°C° 0 mm 2 m/s 756 mmHg 71%
    05:00 +16°C° 0 mm 2 m/s 756 mmHg 70%
    06:00 +16°C° 0 mm 2 m/s 756 mmHg 69%
    07:00 +18°C° 0 mm 2 m/s 756 mmHg 62%
    08:00 +20°C° 0 mm 2 m/s 756 mmHg 56%
    09:00 +23°C° 0 mm 1 m/s 756 mmHg 49%
    10:00 +24°C° 0 mm 2 m/s 756 mmHg 45%
    11:00 +25°C° 0 mm 2 m/s 756 mmHg 42%
    12:00 +26°C° 0 mm 2 m/s 755 mmHg 38%
    13:00 +26°C° 0 mm 2 m/s 755 mmHg 39%
    14:00 +26°C° 0 mm 2 m/s 755 mmHg 40%
    15:00 +26°C° 0 mm 2 m/s 755 mmHg 42%
    16:00 +24°C° 0 mm 2 m/s 755 mmHg 50%
    17:00 +21°C° 0 mm 2 m/s 755 mmHg 58%
    18:00 +20°C° 0 mm 2 m/s 756 mmHg 66%
    19:00 +20°C° 0 mm 1 m/s 756 mmHg 67%
    20:00 +20°C° 0 mm 1 m/s 756 mmHg 69%
    21:00 +19°C° 0 mm 1 m/s 756 mmHg 70%
    22:00 +19°C° 0 mm 1 m/s 756 mmHg 69%
    23:00 +18°C° 0 mm 1 m/s 756 mmHg 68%

    21 Octobre, Dimanche

    Heure Température Précipitation Vent Pression Humidité
    00:00 +18°C° 0 mm 1 m/s 755 mmHg 68%
    01:00 +18°C° 0 mm 1 m/s 755 mmHg 68%
    02:00 +18°C° 0 mm 1 m/s 755 mmHg 67%
    03:00 +18°C° 0 mm 1 m/s 755 mmHg 67%
    04:00 +16°C° 0 mm 1 m/s 755 mmHg 67%
    05:00 +16°C° 0 mm 1 m/s 755 mmHg 67%
    06:00 +16°C° 0 mm 1 m/s 755 mmHg 67%
    07:00 +18°C° 0 mm 1 m/s 755 mmHg 63%
    08:00 +20°C° 0 mm 1 m/s 755 mmHg 58%
    09:00 +19°C° 0 mm 0 m/s 755 mmHg 54%
    10:00 +23°C° 0 mm 1 m/s 755 mmHg 50%
    11:00 +24°C° 0 mm 1 m/s 755 mmHg 47%
    12:00 +25°C° 0 mm 1 m/s 754 mmHg 43%
    13:00 +25°C° 0 mm 1 m/s 754 mmHg 44%
    14:00 +25°C° 0 mm 1 m/s 754 mmHg 45%
    15:00 +25°C° 0 mm 2 m/s 754 mmHg 45%
    16:00 +23°C° 0 mm 1 m/s 754 mmHg 52%
    17:00 +22°C° 0 mm 1 m/s 754 mmHg 59%
    18:00 +21°C° 0 mm 1 m/s 755 mmHg 65%
    19:00 +20°C° 0 mm 1 m/s 755 mmHg 67%
    20:00 +20°C° 0 mm 1 m/s 754 mmHg 70%
    21:00 +19°C° 0 mm 1 m/s 754 mmHg 72%
    22:00 +19°C° 0 mm 1 m/s 754 mmHg 73%
    23:00 +19°C° 0 mm 1 m/s 754 mmHg 75%
    Voir plus